Showing default

ZY 3 2, 41556

Orbit data source: Space-Track

ZY 3 2, 41556 is a Chinese payload satellite in SSO that was launched on Mon, 30 May 2016 UTC via a CHANG ZHENG 4B launch vehicle from the Taiyaun Space Center, China (TSC). Payloads include a variety of satellites, spacecraft, and rockets equipped with specific instruments for various scientific and technological missions. These include communications satellites like Starlink; space stations such as the ISS; scientific satellites like the Hubble; Earth observation satellites from companies like Planet Labs, Umbra, and HawkEye 360; GPS; miniature CubeSats for education and research; and military/defense satellites.

Loading next visibility...
ZY 3 2 details
Identifier
41556, 2016-033A
Orbit
SSO
Last TLE update7 hours ago
Origin
Flag of CNGCDX/ZZWYZ (CN / PRC)
ManufacturerCAST
MissionOperational Civil Imaging
Bus & MotorZY, AOCS 20N
Mass2,650 kg wet, ~2,600 kg dry
Launch date (UTC)
2016-05-30 (9 years ago)
Launch vehicle
CHANG ZHENG 4B
Launch site
Taiyaun Space Center, China (TSC)
Object type
Payload
Rocket body
Debris
Shape & HBRBox + 2 Pan, 10 m
Radar Cross Section10.304 m², Large (>1 m²)

Expand to show TLE details & history

TLE from 7 hours ago
0 ZY 3 2
1 41556U 16033A   24361.54900238  .00015079  00000-0  67997-3 0  9994
2 41556  97.4392  74.8352 0009641  20.4730 339.6891 15.21076724476249
Epoch: 2024-12-26T13:10Z
Definitive object data (Epoch: 2024-12-26T13:10:33.805Z)
Latitude0.00005°
Longitude141.66753°
Altitude499.461 km
Speed7.618 km/s
True Right ascension04h 59m 20s
True Declination0° 00' 00"
Sunlit
Object was in full shadow at TLE epoch
Visualization TLE readout
Latitude-77.72121°
Longitude-74.65516°
Altitude533.567 km
Speed7.593 km/s
Apparent Right ascension09h 09m 56s
Apparent Declination-65° 34' 11"
Sunlit
Object is in daylight
Visualization observer readout
Local Sidereal Time20:00:45
Azimuth195.447° SSW
Elevation-62.51°
Doppler factor1
Orbital elements
Apogee altitude506.188 km
Perigee altitude492.927 km
Semi-major axis6,877.694 km
Eccentricity0.0009641
Inclination97.4392°
RAAN74.8352°
Arg. of periapsis20.473°
True anomaly339.65071°
Mean anomaly339.6891°
Eccentric anomaly339.66991°
Mean motion3.80521 °/min
BSTAR0.00067997
Orbital period94.61 mins
Loading maneuver chart data...
Loading historical data...
Loading historical data...
Loading historical data...
Loading historical data...
Loading historical data...
Loading historical data...
Loading historical data...

ZY 3 2 Visibility forecast

Observer location: undefined°, undefined

Span
Click to sort rows by Start time (UTC) header in descending order
Start Az.
Max El. time (UTC)
Max El. Az.
Max El.
End time (UTC)
End Az.
7 mins2024-12-27 05:04:54.377Z163.008° S2024-12-27 05:08:54.377Z12.028° NNE42.299°2024-12-27 05:11:54.377Z350.79° N
6 mins2024-12-27 18:09:54.377Z2.514° NNE2024-12-27 18:11:54.377Z321.451° NNW41.318°2024-12-27 18:15:54.377Z201.772° SSW
|